Cloud_Cover
100 75 100 100 100 100 61 5 0 4 0 4 11 59 90 48 5 5 10 28 100 100 80 87 79 15 2 5 4 5 0 0 0 0 5 5 3 1 2 1 0 0 0 0 0 0 0 0 5
83 92 99 100 100 100 100 38 28 57 4 14 22 56 100 100 100 6 5 4 90 100 65 61 51 47 15 5 15 5 5 4 2 2 5 5 6 11 5 5 1 1 0 2 1 0 0 0 5
100 96 69 94 100 100 100 100 91 15 0 4 3 53 100 100 100 97 8 0 2 23 75 55 43 52 30 60 56 10 7 5 5 5 5 5 41 59 15 5 2 4 2 0 1 0 1 5 5
100 100 97 85 100 100 100 100 100 96 2 5 86 5 25 100 100 100 100 5 4 41 69 38 22 99 8 5 15 7 34 5 23 5 12 5 16 10 6 5 2 2 5 5 5 5 1 5 5
100 100 100 100 100 100 100 100 100 100 45 32 4 5 5 13 100 100 100 100 11 58 59 62 29 8 11 50 84 70 44 12 5 6 5 5 5 5 14 5 5 5 5 29 7 5 5 5 5
100 100 100 100 100 100 100 100 100 100 100 19 4 0 3 27 100 99 100 100 100 63 43 98 42 15 5 8 8 38 14 5 5 7 5 5 66 5 5 5 5 5 5 6 7 34 11 5 5
100 100 96 100 100 100 100 100 100 100 100 100 98 57 23 45 100 8 77 100 100 100 56 100 86 46 5 6 79 14 82 19 5 62 23 5 5 5 5 5 5 6 5 17 39 66 28 5 24
85 61 99 100 100 100 100 100 100 100 100 100 77 81 5 41 43 100 40 100 100 100 100 100 100 90 55 38 17 3 2 5 5 20 100 88 6 5 5 5 81 22 5 34 97 41 7 33 90
74 100 100 100 100 100 100 100 100 44 99 100 74 32 34 2 98 87 51 78 100 100 100 100 100 99 100 100 100 85 43 34 25 71 60 100 64 39 5 18 12 41 62 84 20 88 33 50 100
42 100 100 100 100 100 100 70 100 75 92 96 99 59 100 29 12 37 100 92 100 100 97 100 100 100 100 100 100 100 98 100 100 88 92 100 98 96 100 70 71 98 100 71 5 91 100 100 100
100 91 58 100 100 100 100 98 100 75 19 48 100 100 100 22 5 4 5 93 100 100 100 100 100 100 100 100 100 100 100 100 99 100 46 98 100 88 86 100 80 39 89 66 82 100 100 100 100
100 100 75 100 100 100 100 100 100 100 100 64 65 100 100 99 74 36 2 0 63 100 100 100 100 65 21 100 100 100 100 100 100 100 100 90 100 99 99 79 49 35 70 100 100 100 100 100 95
100 100 100 100 100 100 100 100 100 100 100 100 100 100 100 100 26 12 5 8 2 38 80 100 100 100 96 100 92 100 100 100 100 100 100 100 100 97 94 100 100 100 100 100 100 100 100 100 100
100 100 81 100 100 100 100 100 93 100 100 54 70 100 100 100 15 81 45 65 100 40 100 100 100 95 98 100 100 100 100 100 100 100 100 100 100 100 100 100 100 100 100 100 100 100 100 100 100
50 100 100 100 100 100 100 100 100 100 100 100 90 31 100 100 100 100 44 32 39 95 100 100 100 100 40 48 100 95 100 91 51 100 100 100 100 100 100 100 100 100 100 100 100 100 100 100 100
0 0 0 27 51 100 100 100 100 100 100 100 100 66 75 74 49 100 100 100 100 68 9 99 100 100 100 100 100 92 100 74 100 99 90 100 100 100 100 100 100 100 100 100 100 100 100 100 100
0 0 0 0 0 1 33 78 100 98 18 26 65 100 100 78 59 100 100 100 100 100 100 100 67 100 100 100 85 83 100 100 100 95 100 100 100 100 100 100 100 100 100 100 100 100 100 100 100
0 0 0 0 0 0 0 0 0 0 0 4 5 61 100 100 100 100 6 92 100 86 100 100 100 100 100 100 83 67 96 99 100 100 100 100 100 100 100 100 100 100 100 100 100 100 100 100 100
0 0 0 0 0 0 0 0 0 0 0 0 0 0 0 91 100 100 75 100 100 100 8 100 100 100 100 100 100 100 100 100 100 100 100 100 100 99 100 100 100 100 100 100 100 100 100 100 100
0 0 0 0 0 0 0 0 0 0 0 0 0 0 0 3 5 44 100 100 28 14 93 100 34 93 100 100 100 100 100 100 100 100 100 100 100 100 100 100 100 100 100 100 100 100 100 100 100
0 0 0 0 0 0 0 0 0 0 0 0 0 0 0 0 0 0 1 35 53 10 0 5 13 74 22 100 98 74 100 100 100 100 100 100 100 100 100 100 100 100 100 100 100 100 100 100 100
0 0 0 0 3 1 0 1 0 0 0 0 3 0 0 0 0 0 0 0 0 0 0 0 1 7 6 55 100 28 28 48 100 100 100 100 100 100 100 100 100 100 100 100 100 100 100 100 100
0 0 0 0 5 19 0 4 0 0 0 0 52 9 0 0 0 0 0 0 0 0 0 0 0 0 1 5 5 5 7 7 47 99 100 100 100 100 100 100 100 100 100 100 100 100 100 100 100
5 5 20 24 21 56 2 62 0 0 0 0 0 100 53 8 0 0 0 0 0 0 0 0 0 0 0 0 0 0 0 0 4 4 95 100 100 100 100 100 100 100 100 100 100 100 100 100 100
66 83 63 39 57 4 5 16 0 0 0 0 0 2 2 0 0 0 0 0 0 0 0 0 0 0 0 0 0 0 0 0 0 1 6 100 100 100 100 100 100 100 100 100 100 100 100 100 100
9 30 100 84 60 69 98 1 39 35 25 3 0 2 0 0 0 4 2 5 0 0 0 0 0 0 0 0 0 0 0 0 0 0 0 0 10 59 100 94 71 100 92 98 92 100 100 100 100
11 4 26 97 100 94 5 5 38 98 96 13 2 0 0 0 0 0 5 5 0 0 0 5 0 0 0 0 0 0 0 0 0 0 0 0 2 4 4 31 12 66 100 62 97 51 100 100 100
0 4 64 89 100 95 36 4 1 98 86 75 65 2 0 1 4 0 11 23 5 1 5 5 72 37 0 0 0 0 0 0 0 0 0 0 0 2 4 5 4 27 68 39 57 5 100 100 100
1 57 100 100 100 100 47 5 90 92 100 99 99 4 22 20 49 5 5 60 65 12 5 40 51 5 4 0 0 0 0 0 0 0 0 0 0 0 1 3 56 90 5 0 5 13 100 100 100
0 33 100 100 100 100 99 97 95 100 100 100 27 5 3 99 61 7 97 90 100 100 48 5 5 5 5 0 0 0 0 0 0 0 0 0 0 0 0 0 0 4 5 5 2 1 15 100 100